[[{"header":{"parameterUnit":"m.s-1","parameterCategory":1,"la1":30.2991,"la2":30.254,"lo1":-89.0895,"lo2":-89.0444,"dy":0.0017,"dx":0.0017,"nx":28,"ny":28,"refTime":"2026-02-09T09:00:00:Z","depth":0,"parameterNumber":2,"parameterNumberName":"U-component_of_WINDS"},"data":[0,0,0,0,0,0,0,0,0,0,0,0,0,0,0,0,0,0,0,0,0,0,0,0,0,0,0,0,0,0,0,0,0,0,0,0,0,0,0,0,0,0,0,0,0,0,0,0,0,0,0,0,0,0,0,0,0,0,-1.5845,-1.5844,0,-1.5762,-1.5761,-1.576,-1.5667,-1.5665,-1.5664,-1.5663,-1.5579,-1.5578,-1.5577,0,0,0,0,0,0,0,0,0,0,0,0,0,-1.5925,-1.5924,-1.5845,-1.5844,-1.5843,-1.5762,-1.5761,-1.576,-1.5667,-1.5665,-1.5664,-1.5662,-1.5579,-1.5578,-1.5577,0,0,0,0,0,0,0,0,0,0,0,0,0,-1.5871,-1.5924,-1.5846,-1.5787,-1.5781,-1.5763,-1.5761,-1.576,-1.5667,-1.5665,-1.5663,-1.5661,-1.5579,-1.5578,-1.5577,-1.5609,0,0,-1.5572,-1.5572,0,0,0,0,0,0,0,0,-1.5874,-1.5868,-1.5797,-1.5791,-1.5784,-1.5723,-1.5758,-1.5709,-1.5668,-1.5711,-1.5663,-1.566,-1.5628,-1.5623,-1.5612,-1.5606,-1.5602,-1.5572,-1.5571,-1.5571,-1.557,0,0,0,0,0,0,0,-1.5878,-1.5871,-1.5812,-1.5796,-1.5788,-1.5765,-1.5755,-1.5749,-1.5682,-1.5707,-1.57,-1.5691,-1.5624,-1.5613,-1.5609,-1.5601,-1.5572,-1.5571,-1.557,-1.5569,-1.5618,-1.562,0,0,0,0,0,0,-1.589,-1.5875,-1.5815,-1.581,-1.5825,-1.5766,-1.5755,-1.5745,-1.5682,-1.567,-1.5693,-1.5687,-1.5617,-1.5611,-1.5606,-1.564,-1.5571,-1.5569,-1.5568,-1.5615,-1.5618,-1.562,0,0,0,0,0,0,-1.5893,-1.5886,-1.5818,-1.5841,-1.583,-1.5767,-1.5756,-1.5744,-1.5733,-1.5671,-1.5659,-1.5694,-1.5615,-1.5608,-1.5609,-1.5636,-1.5569,-1.5567,-1.5613,-1.5616,-1.5619,-1.5709,0,0,0,0,0,0,-1.5895,-1.5887,-1.5899,-1.5842,-1.5829,-1.5823,-1.5758,-1.5744,-1.573,-1.5722,-1.5669,-1.5658,-1.5613,-1.5612,-1.5608,-1.5633,-1.5566,-1.561,-1.5614,-1.5618,-1.5703,-1.5715,-1.5725,0,0,0,0,0,-1.5898,-1.5928,-1.59,-1.5893,-1.5842,-1.5825,-1.5818,-1.5765,-1.5733,-1.5744,-1.5705,-1.566,-1.5634,-1.5613,-1.5607,-1.5632,-1.5608,-1.5613,-1.5618,-1.5699,-1.5713,-1.5725,0,0,0,0,0,0,-1.599,-1.5919,-1.5887,-1.5899,-1.5869,-1.5809,-1.5821,-1.5781,-1.576,-1.5753,-1.5688,-1.5677,-1.5686,-1.5659,-1.5637,-1.5661,-1.5615,-1.5619,-1.5678,-1.5691,-1.5701,-1.5707,-1.5565,0,0,0,0,0,-1.6011,-1.6003,-1.5941,-1.5957,-1.5944,-1.5886,-1.5876,-1.5838,-1.5804,-1.5791,-1.5751,-1.5721,-1.5705,-1.5697,-1.5679,-1.57,-1.5687,-1.5714,-1.5725,-1.5734,-1.5738,-1.5747,-1.5758,-1.5636,-1.5636,-1.5636,0,0,-1.6056,-1.6016,-1.6014,-1.5975,-1.5947,-1.594,-1.5875,-1.587,-1.5864,-1.579,-1.5788,-1.5759,-1.5721,-1.5732,-1.5735,-1.571,-1.5769,-1.574,-1.5748,-1.5746,-1.5753,-1.5764,-1.5775,-1.5639,-1.5639,-1.5638,0,0,-1.6133,-1.6102,-1.6112,-1.6085,-1.6043,-1.6004,-1.6007,-1.5954,-1.5931,-1.5929,-1.5873,-1.5865,-1.584,-1.5815,-1.5799,-1.5868,-1.5826,-1.5864,-1.592,-1.5929,-1.5939,-1.5947,-1.5971,-1.598,-1.5868,-1.5869,-1.5869,0,-1.6193,-1.6179,-1.6122,-1.612,-1.6105,-1.6037,-1.6047,-1.6024,-1.5979,-1.597,-1.5943,-1.5911,-1.588,-1.5884,-1.5901,-1.589,-1.5891,-1.5869,-1.5942,-1.5949,-1.5956,-1.5979,-1.5988,-1.5874,-1.5873,-1.5873,-1.5872,0,-1.6255,-1.6247,-1.626,-1.6218,-1.6204,-1.6209,-1.6152,-1.6145,-1.6109,-1.6073,-1.6072,-1.6033,-1.6007,-1.6005,-1.5969,-1.6004,-1.599,-1.5954,-1.5905,-1.5974,-1.5994,-1.6002,-1.5881,-1.5879,-1.5877,-1.5876,0,0,-1.6387,-1.6313,-1.6319,-1.6299,-1.6249,-1.6241,-1.6243,-1.6217,-1.6212,-1.6184,-1.6184,-1.6165,-1.613,-1.6113,-1.6074,-1.6082,-1.6139,-1.6044,-1.6042,-1.6063,-1.6175,-1.6203,-1.6213,-1.6111,-1.6112,-1.6113,-1.6178,0,-1.6454,-1.6452,-1.6401,-1.6413,-1.6404,-1.6341,-1.6342,-1.6312,-1.6279,-1.6267,-1.6231,-1.6219,-1.6174,-1.6163,-1.6169,-1.6131,-1.616,-1.6125,-1.611,-1.611,-1.6121,-1.6224,-1.6252,-1.6315,-1.6186,-1.6187,-1.6188,0,-1.6532,-1.6508,-1.6519,-1.6469,-1.6463,-1.6465,-1.6437,-1.6427,-1.6392,-1.6367,-1.6348,-1.6304,-1.6302,-1.6258,-1.6255,-1.6233,-1.6224,-1.6204,-1.6205,-1.6201,-1.6153,-1.6222,-1.6334,-1.6344,-1.62,-1.6199,-1.6198,0,-1.6626,-1.6597,-1.6599,-1.6585,-1.6526,-1.6529,-1.6505,-1.6467,-1.6455,-1.6431,-1.6422,-1.6399,-1.6386,-1.6369,-1.632,-1.6293,-1.6324,-1.6275,-1.6303,-1.6305,-1.6312,-1.6312,-1.6424,-1.6308,-1.6307,-1.6307,-1.6307,0,-1.6706,-1.6716,-1.6641,-1.6643,-1.6652,-1.6594,-1.6604,-1.6574,-1.6541,-1.6536,-1.648,-1.6477,-1.6413,-1.6403,-1.6365,-1.6368,-1.6363,-1.6343,-1.6333,-1.6348,-1.6351,-1.6341,-1.6335,-1.631,-1.6309,-1.6309,-1.6308,0,-1.6812,-1.6762,-1.6761,-1.6706,-1.6692,-1.6701,-1.6654,-1.6654,-1.6618,-1.6613,-1.6608,-1.6552,-1.6537,-1.6487,-1.646,-1.6434,-1.6449,-1.643,-1.6461,-1.6454,-1.6485,-1.6483,-1.6594,-1.6606,-1.6484,-1.6485,-1.6486,0,-1.6866,-1.6872,-1.6817,-1.6809,-1.6787,-1.6776,-1.6763,-1.6707,-1.6696,-1.6656,-1.6661,-1.6642,-1.6623,-1.6603,-1.656,-1.6539,-1.6518,-1.6559,-1.6515,-1.653,-1.6518,-1.6518,-1.6518,-1.6568,-1.657,-1.6571,-1.6572,0,-1.6967,-1.6942,-1.6925,-1.6901,-1.6887,-1.6865,-1.6839,-1.6836,-1.6773,-1.6764,-1.6748,-1.6734,-1.6706,-1.6688,-1.666,-1.6636,-1.6594,-1.6586,-1.6592,-1.6607,-1.6624,-1.6615,-1.6487,-1.6584,-1.6583,-1.6582,-1.6581,-1.6581,-1.7048,-1.705,-1.7012,-1.6995,-1.697,-1.6948,-1.6945,-1.6909,-1.6894,-1.6867,-1.6835,-1.6823,-1.6788,-1.6746,-1.6725,-1.6715,-1.6692,-1.67,-1.6702,-1.6704,-1.6712,-1.6627,-1.671,-1.671,-1.6709,-1.6709,-1.6709,0,-1.7146,-1.7118,-1.7103,-1.7069,-1.7057,-1.7018,-1.6988,-1.698,-1.697,-1.6941,-1.6924,-1.6906,-1.6888,-1.6844,-1.6822,-1.6823,-1.6803,-1.6819,-1.6818,-1.6813,-1.6734,-1.6731,-1.6835,-1.6835,-1.6835,-1.6835,-1.6835,-1.6835,-1.7195,-1.7196,-1.7167,-1.7156,-1.7128,-1.7116,-1.7102,-1.7081,-1.7057,-1.704,-1.7024,-1.6996,-1.6961,-1.6936,-1.6918,-1.6906,-1.69,-1.6923,-1.6904,-1.6831,-1.6818,-1.6807,-1.6804,-1.6922,-1.6922,-1.6984,-1.6984,-1.6985]},{"header":{"parameterUnit":"m.s-1","parameterCategory":1,"la1":30.2991,"la2":30.254,"lo1":-89.0895,"lo2":-89.0444,"dy":0.0017,"dx":0.0017,"nx":28,"ny":28,"refTime":"2026-02-09T09:00:00:Z","depth":0,"parameterNumber":3,"parameterNumberName":"V-component_of_WINDS"},"data":[0,0,0,0,0,0,0,0,0,0,0,0,0,0,0,0,0,0,0,0,0,0,0,0,0,0,0,0,0,0,0,0,0,0,0,0,0,0,0,0,0,0,0,0,0,0,0,0,0,0,0,0,0,0,0,0,0,0,0.8227,0.8227,0,0.818,0.818,0.8179,0.8206,0.8208,0.8209,0.821,0.8162,0.816,0.8158,0,0,0,0,0,0,0,0,0,0,0,0,0,0.8344,0.8342,0.8228,0.8227,0.8226,0.818,0.818,0.8179,0.8206,0.8208,0.8209,0.8211,0.8163,0.816,0.8157,0,0,0,0,0,0,0,0,0,0,0,0,0,0.8295,0.8341,0.8228,0.8234,0.8234,0.818,0.8179,0.8179,0.8206,0.8208,0.821,0.8212,0.8164,0.8161,0.8157,0.8094,0,0,0.8145,0.8144,0,0,0,0,0,0,0,0,0.8297,0.829,0.8234,0.8234,0.8234,0.8201,0.8203,0.815,0.8205,0.8217,0.821,0.8213,0.8174,0.8169,0.8156,0.8091,0.8089,0.8145,0.8143,0.8141,0.814,0,0,0,0,0,0,0,0.8301,0.8292,0.8209,0.8233,0.8233,0.8241,0.8236,0.8193,0.8185,0.8216,0.8218,0.8212,0.8174,0.816,0.8155,0.8089,0.8145,0.8142,0.8139,0.8138,0.7972,0.797,0,0,0,0,0,0,0.8303,0.8295,0.821,0.8207,0.8271,0.8237,0.8231,0.821,0.8185,0.8183,0.821,0.8213,0.8165,0.816,0.8154,0.808,0.8141,0.8138,0.8135,0.7974,0.7972,0.7969,0,0,0,0,0,0,0.8306,0.8296,0.8212,0.8252,0.8242,0.8233,0.8208,0.8208,0.8193,0.8181,0.818,0.8197,0.8166,0.8159,0.8109,0.8078,0.8136,0.8132,0.7977,0.7974,0.7971,0.793,0,0,0,0,0,0,0.8309,0.8296,0.8271,0.8251,0.8239,0.8167,0.8206,0.8205,0.8187,0.819,0.8168,0.8166,0.8167,0.8114,0.8105,0.8074,0.813,0.798,0.7975,0.7972,0.7934,0.7926,0.7919,0,0,0,0,0,0.8313,0.8261,0.827,0.826,0.8208,0.8165,0.8159,0.8161,0.8184,0.816,0.8152,0.8167,0.8083,0.8109,0.8099,0.8066,0.7982,0.7977,0.7972,0.7937,0.7927,0.7919,0,0,0,0,0,0,0.8278,0.8259,0.8268,0.8208,0.8188,0.817,0.8139,0.815,0.8124,0.8128,0.8133,0.8127,0.8076,0.8066,0.8095,0.8005,0.8036,0.8029,0.8013,0.8004,0.7996,0.8,0.8126,0,0,0,0,0,0.8264,0.823,0.8215,0.8164,0.8154,0.8148,0.813,0.8133,0.8113,0.8105,0.8093,0.8073,0.8043,0.8023,0.7994,0.7933,0.7929,0.7906,0.7898,0.7892,0.7886,0.7855,0.7845,0.7954,0.7954,0.7954,0,0,0.8233,0.8218,0.8197,0.8157,0.8142,0.8108,0.8141,0.8103,0.8078,0.8099,0.8052,0.8043,0.8021,0.7966,0.7941,0.7956,0.7855,0.7886,0.7881,0.7878,0.7849,0.7839,0.783,0.795,0.7951,0.7952,0,0,0.816,0.8145,0.8102,0.8086,0.8064,0.8061,0.805,0.8031,0.8026,0.7978,0.7994,0.7965,0.7911,0.7896,0.7881,0.7805,0.7818,0.7795,0.7755,0.7725,0.7717,0.7709,0.7684,0.7674,0.7789,0.7789,0.7789,0,0.8125,0.8074,0.8078,0.804,0.8022,0.804,0.7997,0.7982,0.7951,0.7939,0.7956,0.7891,0.7877,0.782,0.7802,0.7788,0.7778,0.7798,0.7718,0.771,0.7703,0.7679,0.7669,0.7786,0.7787,0.7787,0.7787,0,0.8034,0.7998,0.7966,0.7936,0.7915,0.7874,0.7873,0.7851,0.7857,0.7853,0.7805,0.779,0.7759,0.7746,0.7751,0.7689,0.77,0.7717,0.7748,0.769,0.7667,0.7658,0.7783,0.7784,0.7784,0.7785,0,0,0.7937,0.7911,0.7899,0.7887,0.7863,0.7837,0.7798,0.7768,0.775,0.7728,0.7697,0.7652,0.7669,0.7652,0.7656,0.7629,0.7572,0.765,0.765,0.7637,0.7506,0.7493,0.7482,0.7581,0.7579,0.7577,0.7508,0,0.7864,0.7796,0.7799,0.7735,0.7704,0.7721,0.7687,0.767,0.7665,0.7638,0.7633,0.7602,0.7626,0.7616,0.759,0.7584,0.7546,0.7589,0.7553,0.7551,0.7558,0.747,0.7457,0.7392,0.7499,0.7497,0.7496,0,0.7769,0.7745,0.7679,0.7662,0.7649,0.7619,0.7593,0.7567,0.7548,0.7547,0.7529,0.7537,0.7499,0.7531,0.748,0.751,0.7495,0.749,0.7488,0.7485,0.7521,0.7467,0.7371,0.7362,0.7482,0.7483,0.7484,0,0.7708,0.7658,0.7613,0.7602,0.7581,0.7559,0.755,0.7533,0.7516,0.7493,0.7482,0.7455,0.7441,0.742,0.7422,0.7445,0.7371,0.7402,0.7369,0.7369,0.7353,0.7355,0.7256,0.7342,0.7342,0.7342,0.7343,0,0.7627,0.7586,0.7585,0.7557,0.7512,0.7517,0.7473,0.7465,0.7451,0.7423,0.7436,0.7409,0.7413,0.7386,0.7387,0.7346,0.7339,0.7337,0.7338,0.7337,0.7337,0.7328,0.7333,0.734,0.734,0.7341,0.7341,0,0.755,0.7548,0.75,0.7484,0.748,0.7448,0.7435,0.7409,0.7406,0.737,0.7362,0.7358,0.7327,0.7327,0.7292,0.7293,0.7243,0.7248,0.7249,0.7251,0.7218,0.7222,0.7111,0.7097,0.7191,0.719,0.719,0,0.7499,0.7468,0.745,0.7432,0.7421,0.7392,0.7375,0.7378,0.7359,0.7337,0.7315,0.7286,0.7263,0.7214,0.7208,0.7182,0.7188,0.7151,0.7184,0.7184,0.7189,0.7192,0.7189,0.7145,0.7144,0.7143,0.7142,0,0.7409,0.741,0.7384,0.7358,0.7337,0.7317,0.7298,0.7283,0.7285,0.7263,0.7233,0.7215,0.7181,0.7152,0.7128,0.7119,0.7131,0.7132,0.7123,0.7121,0.7124,0.7124,0.7233,0.7134,0.7135,0.7136,0.7136,0.7136,0.7345,0.7319,0.7302,0.7274,0.726,0.7243,0.7219,0.7213,0.7187,0.7159,0.7163,0.713,0.7114,0.7082,0.7071,0.7046,0.7059,0.7046,0.7043,0.704,0.7037,0.7127,0.7041,0.7042,0.7042,0.7042,0.7042,0,0.7257,0.7247,0.7221,0.7195,0.7173,0.7186,0.7167,0.7148,0.7118,0.7102,0.708,0.7046,0.7019,0.7011,0.6986,0.6967,0.6972,0.696,0.6962,0.696,0.7026,0.7037,0.6957,0.6957,0.6957,0.6957,0.6957,0.6957,0.7208,0.7166,0.7165,0.7117,0.7108,0.7075,0.7063,0.7048,0.7036,0.6997,0.6975,0.697,0.6958,0.6932,0.6909,0.6907,0.6898,0.6884,0.6885,0.6947,0.6955,0.6964,0.6974,0.6881,0.6881,0.6821,0.6821,0.682]}]]